SAUDISAT 1A 1 26545U 00057A 12037.20549557 .00000568 00000-0 90491-4 0 654 2 26545 064.5561 026.1573 0034158 329.2908 030.6197 14.81354974613944 UNISAT 1 26547U 00057C 12035.38003328 +.00001289 +00000-0 +17205-3 0 00948 2 26547 064.5543 007.6894 0034595 339.3558 020.6155 14.83644655614173 SAUDISAT 1B 1 26549U 00057E 12037.24359921 .00000467 00000-0 79729-4 0 1566 2 26549 064.5528 048.0687 0034538 337.4124 022.5458 14.80168633613509 MOZHAYETS 1 27560U 02054B 12037.51204213 .00000397 00000-0 99966-4 0 1929 2 27560 097.9420 206.2155 0043734 085.5461 275.0762 14.55506665486992 SAUDISAT 1C 1 27607U 02058C 12037.19266621 .00000628 00000-0 11564-3 0 6817 2 27607 064.5601 336.3699 0085120 274.3673 084.7690 14.72203295490533 UNISAT 2 1 27608U 02058D 12037.15265067 .00000363 00000-0 72596-4 0 6906 2 27608 064.5592 288.2958 0069098 266.1411 093.1772 14.75073376491535 SAUDISAT 2 1 28371U 04025F 12037.36978836 .00000177 00000-0 52949-4 0 5360 2 28371 097.9308 049.9260 0024961 296.5825 063.2817 14.53168842403385 UNISAT 3 1 28373U 04025H 12037.50613880 .00000348 00000-0 11137-3 0 1564 2 28373 098.0836 017.1056 0071528 044.5679 316.1238 14.43733346401251 SSETI-EXPRESS 1 28894U 05043E 12036.86918731 .00000214 00000-0 53673-4 0 2963 2 28894 097.9275 267.5126 0016832 207.1025 152.9297 14.60015158334442 SAUDISAT 3 1 31118U 07012B 12037.51586994 .00000092 00000-0 24045-4 0 1378 2 31118 097.8915 099.2257 0016572 051.1979 309.0706 14.68215375257665